Location: Bratislava
(0.0000°N, 17.1167°E)
Time: 05:52:50
(UTC+01:00)

Daily predictions for brighter satellites

Satellite Brightness Start Highest point End
(mag) Time Altitude Azimuth Time Altitude Azimuth Time Altitude Azimuth
ARIANE 5 R/B 4.5 02:59:26 80° SSW 02:59:48 80° S 08:54:33 10° E
Ariane H10+ 4.5 03:30:19 87° NE 03:30:19 87° NE 03:36:30 10° E
BLOCK DM-SL R/B 4.4 03:30:21 86° SSE 03:30:21 86° SSE 03:57:36 10° E
Cosmos 2322 Rocket 4.4 03:30:05 10° SSE 03:34:19 22° ESE 03:38:30 10° ENE
ATLAS 3B R/B 4.1 03:41:32 24° S 03:41:32 24° S 03:44:07 10° S
NOSS 3-2 (A) 4.0 03:44:31 88° NNE 03:44:34 89° ENE 03:52:54 10° SSE
Milstar 3 3.8 03:45:56 50° NNW 03:48:41 62° NNE 03:56:27 10° ESE
Atlas Centaur 2 2.8 04:03:36 39° ESE 04:03:36 39° ESE 04:06:29 10° ENE
ARIANE 5 R/B 4.1 04:05:47 19° E 04:05:47 19° E 04:06:26 10° E
ISS -0.8 04:06:56 17° ESE 04:06:56 17° ESE 04:08:23 10° E
ARIANE 5 R/B 3.8 04:08:30 34° NE 04:08:30 34° NE 04:09:56 10° ENE
SL-16 R/B 2.3 04:13:59 10° S 04:19:38 74° ESE 04:25:16 10° NNE
Delta 2 Rocket 4.2 04:19:43 52° WSW 04:21:41 83° NNW 04:29:50 10° ENE
Cosmos 967 Rocket 4.5 04:20:33 10° SSW 04:26:50 82° ESE 04:33:12 10° NNE
Cosmos 1825 3.5 04:33:37 28° S 04:33:37 28° S 04:35:34 10° S
CZ-2C R/B 3.7 04:29:10 10° NNE 04:34:04 43° ESE 04:38:57 10° S
Meteor 2-17 Rocket 4.3 04:30:29 10° S 04:36:30 76° W 04:42:31 10° N
deb Ariane 4.4 04:36:40 28° S 04:36:46 28° S 04:39:23 10° ESE
Cosmos 2242 Rocket 4.1 04:32:34 10° S 04:37:02 63° E 04:41:32 10° NNE
Cosmos 1441 Rocket 3.6 04:33:48 10° S 04:37:42 65° E 04:41:38 10° NNE
NOSS 3-2 (C) 4.3 04:35:00 32° NW 04:38:41 52° WSW 04:46:41 10° S
ARIANE 5 R/B 3.8 04:37:13 29° W 04:42:21 72° S 04:46:29 10° ESE
Cosmos 1605 Rocket 3.9 04:37:28 10° SSW 04:43:39 65° W 04:49:42 10° N
Cosmos 2227 Rocket 2.1 04:38:46 14° NNW 04:43:43 88° WSW 04:49:23 10° SSE
Cosmos 2219 4.5 04:46:31 23° SW 04:46:31 23° SW 04:49:54 10° SSW
Meteor 1-28 Rocket 3.6 04:43:14 10° SSE 04:47:01 63° E 04:50:45 10° N
NOAA 6 3.9 04:42:19 10° N 04:47:25 74° WNW 04:52:32 10° SSW
GENESIS II 4.1 04:46:31 41° SW 04:47:37 61° WNW 04:51:28 10° NNE
Feng Yun 1-1 Rocket 4.2 04:41:57 10° N 04:47:41 83° WNW 04:53:34 10° SSW
Cosmos 1000 Rocket 4.4 04:45:58 10° NNW 04:52:00 60° W 04:58:03 10° S
USA 215 3.7 04:48:03 10° SE 04:54:30 60° NE 05:00:55 10° NNW
PAYLOAD A 3.9 04:51:35 10° N 04:56:30 63° WNW 05:01:39 10° SSW
Cosmos 2297 Rocket 2.1 04:51:50 10° NNW 04:57:28 76° WSW 05:03:07 10° S
Spelda 3.5 04:59:43 36° SW 05:00:20 49° S 05:03:36 10° ESE
CENTAUR R/B 3.2 04:51:49 10° NNW 05:00:22 89° WSW 05:08:33 10° SSE
ARIANE 5 R/B 4.5 04:57:24 19° WSW 05:00:57 62° SSE 05:23:11 10° E
IDEFIX/ARIANE 42P 2.6 04:57:26 10° N 05:02:26 51° WNW 05:07:28 10° SSW
Radarsat Rocket 4.2 04:57:12 10° N 05:03:25 71° WNW 05:10:31 10° SSW
ARIANE 5 R/B 3.6 05:01:54 18° WSW 05:05:54 60° S 05:45:25 10° E
Cosmos 1862 Rocket 3.5 05:04:15 10° SSW 05:08:29 55° W 05:12:42 10° N
ARIANE 44LP R/B 3.3 05:05:30 18° W 05:10:51 63° N 05:13:28 10° ENE
Cosmos 1461 3.2 05:09:47 10° SW 05:13:32 41° WNW 05:17:27 10° N
Cosmos 1606 3.1 05:10:46 10° S 05:14:37 67° E 05:18:25 10° N
COSMO-SKYMED 1 3.8 05:12:12 10° SSE 05:16:20 44° ENE 05:20:27 10° N
Cosmos 1459 Rocket 4.1 05:10:57 10° S 05:17:06 81° E 05:23:18 10° N
Cosmos 2173 Rocket 4.2 05:11:31 10° S 05:17:50 81° E 05:24:03 10° N
Cosmos 2322 Rocket 3.1 05:13:27 10° SW 05:18:03 26° WNW 05:22:39 10° NNW
Ariane H10 3.1 05:18:54 15° WNW 05:21:23 44° N 05:30:01 10° ENE
Lacrosse 4 Rocket 2.8 05:20:58 10° S 05:24:52 41° ESE 05:28:42 10° NE
Milstar 3 Cent rocket 4.4 05:24:50 10° NNW 05:27:04 12° N 05:29:39 10° NNE
Cosmos 2082 4.1 05:21:51 10° NW 05:27:11 41° WSW 05:32:32 10° S
Cosmos 2360 Rocket 2.2 05:21:37 10° SSW 05:27:15 67° WNW 05:32:51 10° N
Okean 1-7 4.4 05:23:36 10° SSE 05:27:38 42° E 05:31:41 10° NNE
EPKM 3.9 05:21:28 12° WNW 05:28:59 40° SW 05:31:38 10° SE
Cosmos 1733 Rocket 3.9 05:25:17 10° N 05:29:36 56° E 05:33:57 10° SSE
ARIANE DEB (SPELDA) 3.9 05:26:19 11° W 05:29:48 68° S 05:48:07 10° E
Cosmos 405 Rocket 4.3 05:28:30 10° SW 05:31:12 17° W 05:33:52 10° NW
Okean-O 3.7 05:28:54 10° NNW 05:32:23 23° WNW 05:35:52 10° SW
Ariane H10 2.4 05:31:32 10° WSW 05:33:52 32° S 05:35:49 10° ESE
ARIANE 5 R/B 3.1 05:24:38 10° W 05:37:31 75° N 05:40:20 10° E
ISS -1.8 05:40:43 10° W 05:42:16 13° NW 05:43:50 10° NNW
Aureole 2 Rocket 2.9 05:41:10 10° SW 05:43:39 26° WNW 05:46:02 10° NNW
USA 234 3.5 05:40:28 10° NNE 05:46:44 52° NW 05:53:03 10° SW
BLOCK DM-SL R/B 3.0 05:43:49 10° W 05:49:45 89° S 05:53:58 10° E
